• în România
  • Lista ţărilor
  • Pe 7 zile
  • Temperatura apei
  • Hartă satelitară
  • Meteo pe hartă
  • Widget-uri
  • user-avatar
    Intrare

    Meteo pe oră la Naydenka

    Astăzi, 13 Noiembrie, Marţi

    Timp Temperatura Precipitaţii Vânt Presiune Umiditate
    00:00 -6°C° 0 mm 5 m/s 762 mmHg 51%
    01:00 -6°C° 0 mm 5 m/s 761 mmHg 51%
    02:00 -6°C° 0 mm 5 m/s 761 mmHg 52%
    03:00 -6°C° 0 mm 5 m/s 760 mmHg 53%
    04:00 -6°C° 0 mm 5 m/s 760 mmHg 53%
    05:00 -5°C° 0 mm 5 m/s 760 mmHg 53%
    06:00 -5°C° 0 mm 6 m/s 759 mmHg 53%
    07:00 -5°C° 0 mm 6 m/s 759 mmHg 53%
    08:00 -6°C° 0 mm 7 m/s 758 mmHg 52%
    09:00 -6°C° 0.1 mm 7 m/s 758 mmHg 55%
    10:00 -6°C° 0.1 mm 7 m/s 757 mmHg 57%
    11:00 -6°C° 0.1 mm 7 m/s 757 mmHg 60%
    12:00 -4°C° 0.1 mm 7 m/s 756 mmHg 56%
    13:00 -3°C° 0.1 mm 6 m/s 756 mmHg 53%
    14:00 -3°C° 0.1 mm 6 m/s 755 mmHg 49%
    15:00 -3°C° 0 mm 6 m/s 755 mmHg 49%
    16:00 -3°C° 0 mm 6 m/s 755 mmHg 49%
    17:00 -3°C° 0 mm 6 m/s 755 mmHg 50%
    18:00 -3°C° 0 mm 6 m/s 754 mmHg 53%
    19:00 -3°C° 0 mm 6 m/s 754 mmHg 56%
    20:00 -3°C° 0 mm 6 m/s 753 mmHg 59%
    21:00 -3°C° 0.3 mm 6 m/s 753 mmHg 65%
    22:00 -4°C° 0.3 mm 6 m/s 753 mmHg 70%
    23:00 -4°C° 0.3 mm 6 m/s 753 mmHg 76%

    Mâine, 14 Noiembrie, Miercuri

    Timp Temperatura Precipitaţii Vânt Presiune Umiditate
    00:00 -4°C° 0.5 mm 5 m/s 752 mmHg 74%
    01:00 -4°C° 0.5 mm 5 m/s 752 mmHg 72%
    02:00 -4°C° 0.5 mm 5 m/s 752 mmHg 70%
    03:00 -4°C° 0.2 mm 5 m/s 751 mmHg 69%
    04:00 -4°C° 0.2 mm 5 m/s 751 mmHg 68%
    05:00 -3°C° 0.2 mm 4 m/s 750 mmHg 66%
    06:00 -3°C° 0.4 mm 4 m/s 750 mmHg 71%
    07:00 -4°C° 0.4 mm 4 m/s 750 mmHg 76%
    08:00 -4°C° 0.4 mm 4 m/s 750 mmHg 81%
    09:00 -4°C° 0.5 mm 4 m/s 751 mmHg 80%
    10:00 -4°C° 0.5 mm 4 m/s 751 mmHg 80%
    11:00 -3°C° 0.5 mm 4 m/s 751 mmHg 79%
    12:00 -2°C° 0.4 mm 3 m/s 751 mmHg 79%
    13:00 -2°C° 0.4 mm 3 m/s 751 mmHg 78%
    14:00 -2°C° 0.4 mm 3 m/s 751 mmHg 78%
    15:00 -2°C° 0.2 mm 3 m/s 752 mmHg 78%
    16:00 -2°C° 0.2 mm 2 m/s 752 mmHg 79%
    17:00 -2°C° 0.2 mm 2 m/s 752 mmHg 80%
    18:00 -2°C° 0 mm 2 m/s 753 mmHg 80%
    19:00 -2°C° 0 mm 2 m/s 753 mmHg 81%
    20:00 -1°C° 0 mm 1 m/s 753 mmHg 81%
    21:00 -1°C° 0.1 mm 1 m/s 754 mmHg 82%
    22:00 -1°C° 0.1 mm 1 m/s 754 mmHg 83%
    23:00 -1°C° 0.1 mm 1 m/s 755 mmHg 84%

    Poimâine, 15 Noiembrie, Joi

    Timp Temperatura Precipitaţii Vânt Presiune Umiditate
    00:00 -1°C° 0 mm 1 m/s 755 mmHg 85%
    01:00 -1°C° 0 mm 1 m/s 755 mmHg 86%
    02:00 -1°C° 0 mm 1 m/s 756 mmHg 87%
    03:00 -1°C° 0 mm 1 m/s 756 mmHg 87%
    04:00 -1°C° 0 mm 1 m/s 756 mmHg 88%
    05:00 -1°C° 0 mm 1 m/s 757 mmHg 88%
    06:00 -1°C° 0 mm 1 m/s 757 mmHg 89%
    07:00 -1°C° 0 mm 1 m/s 758 mmHg 90%
    08:00 -1°C° 0 mm 1 m/s 758 mmHg 91%
    09:00 -1°C° 0 mm 1 m/s 759 mmHg 89%
    10:00 0°C° 0 mm 1 m/s 759 mmHg 87%
    11:00 +1°C° 0 mm 1 m/s 759 mmHg 84%
    12:00 +1°C° 0 mm 1 m/s 759 mmHg 86%
    13:00 +1°C° 0 mm 1 m/s 760 mmHg 87%
    14:00 +1°C° 0 mm 1 m/s 760 mmHg 88%
    15:00 0°C° 0 mm 1 m/s 760 mmHg 90%
    16:00 0°C° 0 mm 1 m/s 760 mmHg 92%
    17:00 -1°C° 0 mm 1 m/s 761 mmHg 94%
    18:00 -1°C° 0 mm 1 m/s 761 mmHg 94%
    19:00 -1°C° 0 mm 1 m/s 761 mmHg 95%
    20:00 -1°C° 0 mm 1 m/s 762 mmHg 95%
    21:00 -1°C° 0 mm 1 m/s 762 mmHg 95%
    22:00 0°C° 0 mm 1 m/s 762 mmHg 94%
    23:00 0°C° 0 mm 1 m/s 762 mmHg 94%

    16 Noiembrie, Vineri

    Timp Temperatura Precipitaţii Vânt Presiune Umiditate
    00:00 0°C° 0 mm 1 m/s 762 mmHg 94%
    01:00 0°C° 0 mm 1 m/s 763 mmHg 94%
    02:00 -2°C° 0 mm 2 m/s 763 mmHg 94%
    03:00 -2°C° 0 mm 2 m/s 763 mmHg 94%
    04:00 -2°C° 0 mm 2 m/s 763 mmHg 94%
    05:00 -2°C° 0 mm 2 m/s 763 mmHg 94%
    06:00 -2°C° 0 mm 2 m/s 763 mmHg 93%
    07:00 -2°C° 0 mm 2 m/s 763 mmHg 93%
    08:00 -2°C° 0 mm 2 m/s 763 mmHg 93%
    09:00 -1°C° 0 mm 2 m/s 763 mmHg 91%
    10:00 +1°C° 0 mm 2 m/s 763 mmHg 89%
    11:00 0°C° 0 mm 3 m/s 763 mmHg 88%
    12:00 0°C° 0 mm 3 m/s 763 mmHg 88%
    13:00 0°C° 0 mm 3 m/s 763 mmHg 89%
    14:00 0°C° 0 mm 3 m/s 763 mmHg 89%
    15:00 0°C° 0 mm 3 m/s 763 mmHg 91%
    16:00 -1°C° 0 mm 2 m/s 763 mmHg 93%
    17:00 -2°C° 0 mm 2 m/s 763 mmHg 94%
    18:00 -2°C° 0 mm 2 m/s 763 mmHg 95%
    19:00 -2°C° 0 mm 2 m/s 763 mmHg 95%
    20:00 -2°C° 0 mm 2 m/s 763 mmHg 95%
    21:00 -2°C° 0 mm 2 m/s 763 mmHg 95%
    22:00 -2°C° 0 mm 2 m/s 763 mmHg 95%
    23:00 -2°C° 0 mm 2 m/s 762 mmHg 96%

    17 Noiembrie, Sâmbătă

    Timp Temperatura Precipitaţii Vânt Presiune Umiditate
    00:00 -2°C° 0 mm 2 m/s 762 mmHg 96%
    01:00 -2°C° 0 mm 2 m/s 762 mmHg 96%
    02:00 -1°C° 0 mm 3 m/s 762 mmHg 96%
    03:00 -1°C° 0 mm 3 m/s 761 mmHg 96%
    04:00 -1°C° 0 mm 3 m/s 761 mmHg 95%
    05:00 0°C° 0 mm 3 m/s 761 mmHg 95%
    06:00 0°C° 0 mm 3 m/s 760 mmHg 95%
    07:00 0°C° 0 mm 3 m/s 760 mmHg 95%
    08:00 +1°C° 0 mm 3 m/s 759 mmHg 95%
    09:00 +1°C° 0 mm 3 m/s 759 mmHg 95%
    10:00 +1°C° 0 mm 3 m/s 758 mmHg 94%
    11:00 +2°C° 0 mm 3 m/s 758 mmHg 94%
    12:00 +2°C° 0 mm 3 m/s 757 mmHg 94%
    13:00 +2°C° 0 mm 3 m/s 757 mmHg 94%
    14:00 +2°C° 0 mm 3 m/s 756 mmHg 94%
    15:00 +2°C° 0 mm 3 m/s 755 mmHg 94%
    16:00 +2°C° 0 mm 3 m/s 755 mmHg 94%
    17:00 +1°C° 0 mm 4 m/s 754 mmHg 95%
    18:00 +1°C° 0.1 mm 4 m/s 753 mmHg 94%
    19:00 +1°C° 0.1 mm 4 m/s 753 mmHg 94%
    20:00 +1°C° 0.1 mm 4 m/s 752 mmHg 94%
    21:00 +1°C° 0 mm 4 m/s 752 mmHg 94%
    22:00 +1°C° 0 mm 4 m/s 751 mmHg 93%
    23:00 +1°C° 0 mm 4 m/s 751 mmHg 93%

    18 Noiembrie, Duminică

    Timp Temperatura Precipitaţii Vânt Presiune Umiditate
    00:00 +1°C° 0 mm 4 m/s 751 mmHg 92%
    01:00 +1°C° 0 mm 4 m/s 750 mmHg 92%
    02:00 0°C° 0 mm 4 m/s 750 mmHg 91%
    03:00 0°C° 0.1 mm 4 m/s 749 mmHg 90%
    04:00 0°C° 0.1 mm 4 m/s 749 mmHg 90%
    05:00 0°C° 0.1 mm 5 m/s 749 mmHg 89%
    06:00 +1°C° 0.1 mm 5 m/s 749 mmHg 87%
    07:00 +1°C° 0.1 mm 5 m/s 749 mmHg 85%
    08:00 +1°C° 0.1 mm 6 m/s 750 mmHg 83%
    09:00 +1°C° 0.1 mm 6 m/s 750 mmHg 82%
    10:00 +1°C° 0.1 mm 6 m/s 751 mmHg 81%
    11:00 -1°C° 0.1 mm 6 m/s 751 mmHg 79%
    12:00 -1°C° 0.1 mm 6 m/s 752 mmHg 80%
    13:00 -1°C° 0.1 mm 6 m/s 752 mmHg 80%
    14:00 -1°C° 0.1 mm 6 m/s 753 mmHg 81%
    15:00 -2°C° 0 mm 6 m/s 753 mmHg 81%
    16:00 -2°C° 0 mm 6 m/s 754 mmHg 82%
    17:00 -3°C° 0 mm 6 m/s 755 mmHg 82%
    18:00 -2°C° 0 mm 5 m/s 755 mmHg 82%
    19:00 -2°C° 0 mm 5 m/s 756 mmHg 81%
    20:00 -4°C° 0 mm 5 m/s 756 mmHg 81%
    21:00 -4°C° 0 mm 5 m/s 757 mmHg 80%
    22:00 -5°C° 0 mm 5 m/s 757 mmHg 80%
    23:00 -5°C° 0 mm 5 m/s 757 mmHg 79%
    Arată mai mult